Regional Weather Roundup
Issued by NWS Raleigh/Durham, NC

Home | Current Version | Previous Version | Text Only | Print | Product List | Glossary On
Versions: 1 2 3 4 5 6 7 8 9 10 11 12 13 14 15 16 17 18 19 20 21 22 23 24 25 26 27 28 29 30 31 32 33 34 35 36 37 38 39 40 41 42 43 44 45 46 47 48 49 50
000
ASUS42 KRAH 270110
RWRRAH
NORTH CAROLINA WEATHER ROUNDUP
NATIONAL WEATHER SERVICE RALEIGH NC
800 PM EST SUN FEB 26 2017

NOTE: "FAIR" INDICATES FEW OR NO CLOUDS BELOW 12,000 FEET WITH NO
SIGNIFICANT WEATHER AND/OR OBSTRUCTIONS TO VISIBILITY.

NCZ001-053-055-056-065-067-270200-
WESTERN NORTH CAROLINA

CITY           SKY/WX    TMP DP  RH WIND       PRES   REMARKS
ASHEVILLE      CLEAR     41  20  43 CALM      30.21R
JEFFERSON      CLEAR     37   8  29 CALM      30.19R
MORGANTON      CLEAR     46  15  29 S3        30.26R
HICKORY        CLEAR     46  19  34 CALM      30.21R
RUTHERFORDTON  CLEAR     50  16  26 E6        30.22R
MOUNT AIRY     CLEAR     42  22  43 CALM      30.25R
BOONE          CLEAR     32  16  50 CALM      30.21R
$$

NCZ021-022-025-041-071-084-088-270200-
CENTRAL NORTH CAROLINA

CITY           SKY/WX    TMP DP  RH WIND       PRES   REMARKS
CHARLOTTE      PTCLDY    48  18  30 SE5       30.23R
GREENSBORO     PTCLDY    46  18  32 CALM      30.23R
WINSTON-SALEM  CLEAR     44  17  33 CALM      30.24S
RALEIGH-DURHAM PTCLDY    44  22  41 CALM      30.27R
FORT BRAGG     CLEAR     42  32  66 CALM      30.26R
FAYETTEVILLE     N/A    N/A N/A N/A MISG        N/A
BURLINGTON     CLEAR     42  21  43 CALM      30.24R
LAURINBURG     CLEAR     45  27  49 CALM      30.28R
$$

NCZ011-015-027-028-043-044-047-080-103-270200-
NORTHEASTERN NORTH CAROLINA

CITY           SKY/WX    TMP DP  RH WIND       PRES   REMARKS
ROCKY MT-WILSO CLEAR     39  32  76 CALM      30.28R
GREENVILLE     CLEAR     43  27  52 CALM      30.29R
WASHINGTON     CLEAR     45  27  49 CALM      30.29R
ELIZABETH CITY CLEAR     43  37  79 E9        30.29R
MANTEO         CLEAR     43  36  77 E5        30.29R
CAPE HATTERAS  CLEAR     43  33  68 CALM      30.27R
$$

NCZ078-087-090-091-093-098-101-270200-
SOUTHEASTERN NORTH CAROLINA

CITY           SKY/WX    TMP DP  RH WIND       PRES   REMARKS
LUMBERTON      CLEAR     44  31  60 CALM      30.27R
GOLDSBORO      NOT AVBL
KINSTON        CLEAR     39  28  65 CALM      30.29R
KENANSVILLE    PTCLDY    39  28  65 CALM      30.28R
NEW BERN       CLEAR     44  32  62 CALM      30.29R
CHERRY POINT   CLEAR     45  30  55 CALM      30.29
BEAUFORT       PTCLDY    52  35  52 W9        30.28R
JACKSONVILLE   PTCLDY    44  36  73 S3        30.28R
WILMINGTON     PTCLDY    46  34  62 CALM      30.28R
$$




USA.gov is the U.S. government's official web portal to all federal, state and local government web resources and services.